Terminal Aerodrome Forecast
Issued by NWS

Home | Current Version | Previous Version | Text Only | Print | Product List | Glossary On
Versions: 1 2 3 4 5 6 7 8 9 10 11 12 13 14 15
000
FTUS45 KRIW 251720
TAFJAC
TAF
KJAC 251720Z 2518/2618 20007KT P6SM VCSH SCT010 BKN015 OVC025
     FM251900 34010KT P6SM VCSH SCT015 BKN035
      TEMPO 2519/2523 5SM -SHRASN BKN030
     FM260100 36006KT P6SM VCSH SCT050
     FM261200 20006KT P6SM VCSH BKN030
      AMD LTD TO CLD VIS AND WIND=

USA.gov is the U.S. government's official web portal to all federal, state and local government web resources and services.